TimeEST,TemperatureF,Dew PointF,Humidity,Sea Level PressureIn,VisibilityMPH,Wind Direction,Wind SpeedMPH,Gust SpeedMPH,PrecipitationIn,Events,Conditions,WindDirDegrees,DateUTC
12:51 AM,19.4,17.6,93,29.51,4.0,SSE,3.5,-,0.01,Snow,Light Snow,160,2014-01-17 05:51:00
12:53 AM,19.0,18.0,96,29.58,4.0,SSE,4.6,-,0.01,,Overcast,160,2014-01-17 05:53:00
1:17 AM,18.0,16.0,92,29.51,4.0,Calm,Calm,-,N/A,,Overcast,0,2014-01-17 06:17:00
1:53 AM,19.0,16.0,88,29.58,3.0,Calm,Calm,-,N/A,,Overcast,0,2014-01-17 06:53:00
2:39 AM,18.0,15.1,88,29.52,5.0,Calm,Calm,-,N/A,,Overcast,0,2014-01-17 07:39:00
2:53 AM,18.0,16.0,92,29.59,4.0,Calm,Calm,-,N/A,,Overcast,0,2014-01-17 07:53:00
3:53 AM,15.1,12.0,88,29.59,6.0,Calm,Calm,-,0.00,,Overcast,0,2014-01-17 08:53:00
4:31 AM,19.9,18.0,92,29.53,2.0,Calm,Calm,-,0.00,Snow,Light Snow,0,2014-01-17 09:31:00
4:42 AM,19.9,18.0,92,29.53,4.0,Calm,Calm,-,0.00,,Overcast,0,2014-01-17 09:42:00
4:53 AM,19.9,18.0,92,29.60,5.0,Calm,Calm,-,0.00,,Overcast,0,2014-01-17 09:53:00
5:19 AM,19.0,17.1,92,29.53,7.0,Calm,Calm,-,N/A,,Overcast,0,2014-01-17 10:19:00
5:45 AM,18.0,16.0,92,29.54,7.0,Calm,Calm,-,N/A,,Overcast,0,2014-01-17 10:45:00
5:53 AM,18.0,16.0,92,29.61,7.0,Calm,Calm,-,N/A,,Overcast,0,2014-01-17 10:53:00
6:53 AM,19.9,18.0,92,29.62,6.0,Calm,Calm,-,N/A,,Overcast,0,2014-01-17 11:53:00
7:11 AM,19.0,17.1,92,29.56,6.0,Calm,Calm,-,N/A,,Overcast,0,2014-01-17 12:11:00
7:21 AM,19.0,17.1,92,29.56,6.0,Calm,Calm,-,N/A,,Overcast,0,2014-01-17 12:21:00
7:53 AM,19.0,18.0,96,29.64,2.5,Calm,Calm,-,0.00,Snow,Light Snow,0,2014-01-17 12:53:00
8:16 AM,19.0,17.1,92,29.58,3.0,Calm,Calm,-,0.00,Snow,Light Snow,0,2014-01-17 13:16:00
8:34 AM,19.0,17.1,92,29.58,2.5,SW,3.5,-,0.00,Snow,Light Snow,230,2014-01-17 13:34:00
8:53 AM,19.0,17.1,92,29.66,2.0,Calm,Calm,-,0.00,Snow,Light Snow,0,2014-01-17 13:53:00
9:09 AM,19.9,18.0,92,29.60,1.0,Calm,Calm,-,0.00,Snow,Light Snow,0,2014-01-17 14:09:00
9:26 AM,19.9,19.0,96,29.60,1.5,Calm,Calm,-,0.00,Snow,Light Snow,0,2014-01-17 14:26:00
9:46 AM,19.9,18.0,92,29.61,2.0,Calm,Calm,-,0.00,Snow,Light Snow,0,2014-01-17 14:46:00
9:53 AM,19.9,18.0,92,29.68,2.0,Calm,Calm,-,0.00,Snow,Light Snow,0,2014-01-17 14:53:00
10:02 AM,19.9,18.0,92,29.62,1.8,Calm,Calm,-,0.00,Snow,Light Snow,0,2014-01-17 15:02:00
10:11 AM,19.9,19.0,96,29.62,1.2,Calm,Calm,-,0.00,Snow,Light Snow,0,2014-01-17 15:11:00
10:53 AM,21.9,19.9,92,29.70,1.8,SW,3.5,-,0.00,Snow,Light Snow,230,2014-01-17 15:53:00
11:00 AM,21.9,21.0,96,29.63,2.0,WSW,3.5,-,0.00,Snow,Light Snow,240,2014-01-17 16:00:00
11:09 AM,23.0,21.0,92,29.63,3.0,WSW,6.9,-,0.00,Snow,Light Snow,240,2014-01-17 16:09:00
11:53 AM,24.1,21.0,88,29.70,6.0,WSW,10.4,-,0.00,,Overcast,250,2014-01-17 16:53:00
12:05 PM,24.1,21.0,88,29.64,6.0,West,9.2,-,N/A,,Overcast,260,2014-01-17 17:05:00
12:21 PM,24.1,21.0,88,29.64,5.0,West,8.1,-,N/A,,Overcast,260,2014-01-17 17:21:00
12:53 PM,24.1,21.9,91,29.70,7.0,West,11.5,-,N/A,,Overcast,260,2014-01-17 17:53:00
1:29 PM,24.1,21.0,88,29.64,1.8,WSW,12.7,-,0.00,Snow,Light Snow,250,2014-01-17 18:29:00
1:53 PM,24.1,21.0,88,29.71,1.0,West,13.8,-,0.00,Snow,Light Snow,260,2014-01-17 18:53:00
2:11 PM,24.1,21.0,88,29.65,2.0,West,12.7,-,0.00,Snow,Light Snow,260,2014-01-17 19:11:00
2:18 PM,24.1,21.0,88,29.65,1.5,West,10.4,-,0.00,Snow,Light Snow,260,2014-01-17 19:18:00
2:36 PM,24.1,19.9,84,29.66,2.5,West,10.4,-,0.00,Snow,Light Snow,260,2014-01-17 19:36:00
2:53 PM,24.1,19.9,84,29.73,3.0,WSW,11.5,-,0.01,Snow,Light Snow,250,2014-01-17 19:53:00
3:02 PM,23.0,19.9,88,29.66,2.5,West,12.7,-,0.00,Snow,Light Snow,260,2014-01-17 20:02:00
3:13 PM,23.0,19.9,88,29.67,3.0,West,12.7,-,0.00,Snow,Light Snow,270,2014-01-17 20:13:00
3:36 PM,23.0,19.9,88,29.68,2.0,WSW,12.7,-,0.00,Snow,Light Snow,250,2014-01-17 20:36:00
3:45 PM,23.0,19.9,88,29.68,1.5,WSW,12.7,-,0.00,Snow,Light Snow,250,2014-01-17 20:45:00
3:53 PM,23.0,19.0,85,29.76,1.5,West,12.7,-,0.00,Snow,Light Snow,260,2014-01-17 20:53:00
4:07 PM,21.9,19.0,89,29.69,1.2,WSW,10.4,-,0.00,Snow,Light Snow,250,2014-01-17 21:07:00
4:42 PM,21.9,19.0,89,29.70,2.5,West,11.5,-,0.00,Snow,Light Snow,260,2014-01-17 21:42:00
4:53 PM,21.9,19.0,89,29.77,1.8,West,9.2,-,0.00,Snow,Light Snow,260,2014-01-17 21:53:00
5:05 PM,21.9,19.0,89,29.71,2.5,WSW,8.1,-,0.00,Snow,Light Snow,250,2014-01-17 22:05:00
5:12 PM,21.9,19.0,89,29.71,5.0,WSW,11.5,-,0.00,Snow,Light Snow,250,2014-01-17 22:12:00
5:53 PM,21.0,18.0,88,29.79,4.0,West,9.2,-,0.00,Snow,Light Snow,260,2014-01-17 22:53:00
6:29 PM,21.0,18.0,88,29.73,4.0,West,8.1,-,0.00,Snow,Light Snow,260,2014-01-17 23:29:00
6:53 PM,21.0,18.0,88,29.80,10.0,West,11.5,-,0.00,,Overcast,260,2014-01-17 23:53:00
7:07 PM,21.0,18.0,88,29.74,10.0,West,10.4,-,N/A,,Overcast,260,2014-01-18 00:07:00
7:49 PM,21.2,17.6,86,29.75,2.5,WSW,9.2,-,0.00,Snow,Light Snow,250,2014-01-18 00:49:00
7:53 PM,21.0,18.0,88,29.82,2.5,WSW,9.2,-,0.00,Snow,Light Snow,250,2014-01-18 00:53:00
8:04 PM,21.0,18.0,88,29.76,4.0,West,8.1,-,0.00,Snow,Light Snow,260,2014-01-18 01:04:00
8:53 PM,19.9,17.1,89,29.82,6.0,WNW,4.6,-,0.00,Snow,Light Snow,300,2014-01-18 01:53:00
9:08 PM,19.9,17.1,89,29.76,6.0,Calm,Calm,-,0.00,Snow,Light Snow,0,2014-01-18 02:08:00
9:39 PM,19.9,16.0,85,29.76,3.0,Calm,Calm,-,0.00,Snow,Light Snow,0,2014-01-18 02:39:00
9:53 PM,19.9,17.1,89,29.83,4.0,Calm,Calm,-,0.00,Snow,Light Snow,0,2014-01-18 02:53:00
10:53 PM,19.9,16.0,85,29.83,9.0,Variable,4.6,-,0.00,Snow,Light Snow,0,2014-01-18 03:53:00
11:31 PM,19.0,16.0,88,29.75,9.0,WNW,4.6,-,0.00,,Overcast,300,2014-01-18 04:31:00
11:53 PM,19.0,15.1,85,29.81,10.0,West,5.8,-,0.00,,Overcast,280,2014-01-18 04:53:00